KD4PYR Weather Reports


Display with metric or nautical units.
time (UTC)temp
F
wind
direction
speed
MPH
gust
MPH
rain 1hr
in
rain 24hr
in
rain mn
in
humidity
%
barometer
mb
20260506204840 59 339 4.0 8.0 0.00 1.06 0.43 52 1010.9
20260506203900 60 315 3.0 9.0 0.00 1.06 0.43 55 1010.7
20260506202832 59 321 5.0 10.0 0.00 1.06 0.43 56 1010.9
20260506201825 59 5 4.0 8.0 0.00 1.06 0.43 55 1010.9
20260506200842 59 360 2.0 10.0 0.00 1.06 0.43 56 1010.9
20260506195826 59 289 5.0 11.0 0.00 1.24 0.43 56 1010.9
20260506194850 59 12 4.0 8.0 0.00 1.24 0.43 54 1010.9
20260506193848 59 327 3.0 8.0 0.00 1.24 0.43 54 1010.9
20260506192847 61 300 3.0 6.0 0.00 1.24 0.43 51 1011.0
20260506191839 61 311 3.0 6.0 0.00 1.24 0.43 51 1010.7
20260506190830 61 289 4.0 9.0 0.00 1.24 0.43 51 1010.5
20260506185834 61 5 1.0 8.0 0.00 1.24 0.43 54 1010.4
20260506184818 59 281 2.0 9.0 0.00 1.24 0.43 56 1010.5
20260506183838 59 307 3.0 13.0 0.00 1.24 0.43 55 1010.6
20260506182831 60 292 7.0 13.0 0.00 1.24 0.43 52 1010.6
20260506181910 60 299 4.0 9.0 0.00 1.24 0.43 56 1010.5
20260506180840 59 326 3.0 13.0 0.00 1.24 0.43 56 1010.5
20260506175827 60 10 4.0 10.0 0.00 1.24 0.43 55 1010.6
20260506174831 59 355 2.0 12.0 0.00 1.24 0.43 56 1010.9
20260506173848 58 309 1.0 6.0 0.00 1.24 0.43 61 1010.9
20260506172839 57 355 5.0 10.0 0.00 1.24 0.43 58 1011.0
20260506171831 57 304 3.0 12.0 0.00 1.24 0.43 59 1011.1
20260506170851 56 5 5.0 8.0 0.00 1.24 0.43 62 1011.1
20260506165835 55 282 3.0 11.0 0.00 1.24 0.43 62 1011.3
20260506164858 56 293 5.0 10.0 0.00 1.24 0.43 63 1011.4
20260506163827 55 327 3.0 11.0 0.00 1.24 0.43 64 1011.3
20260506162846 55 339 6.0 12.0 0.00 1.24 0.43 63 1011.3
20260506161839 54 5 6.0 10.0 0.00 1.24 0.43 65 1011.4
20260506160815 54 334 3.0 10.0 0.00 1.24 0.43 67 1011.2
20260506155817 53 311 2.0 9.0 0.00 1.25 0.43 67 1011.1
20260506154837 53 319 6.0 11.0 0.00 1.25 0.43 66 1011.0
20260506153832 53 347 5.0 13.0 0.00 1.25 0.43 68 1010.9
20260506152823 53 355 4.0 12.0 0.00 1.25 0.43 69 1010.9
20260506151816 52 5 4.0 11.0 0.00 1.25 0.43 70 1010.9
20260506150833 52 326 5.0 9.0 0.00 1.25 0.43 72 1010.9
20260506145817 51 355 3.0 10.0 0.00 1.25 0.43 74 1010.4
20260506144839 50 311 4.0 8.0 0.00 1.25 0.43 74 1010.5
20260506143832 50 345 2.0 8.0 0.00 1.25 0.43 74 1010.2
20260506142826 49 322 2.0 5.0 0.00 1.25 0.43 76 1010.2
20260506141844 49 314 1.0 11.0 0.00 1.25 0.43 76 1010.1
20260506140834 48 335 2.0 9.0 0.00 1.25 0.43 77 1009.7
20260506135839 48 333 2.0 9.0 0.00 1.25 0.43 78 1009.8
20260506134909 47 314 3.0 10.0 0.00 1.25 0.43 78 1009.5
20260506133842 46 304 5.0 8.0 0.00 1.25 0.43 79 1009.7
20260506132816 46 330 2.0 5.0 0.00 1.25 0.43 80 1009.9
20260506131835 46 328 4.0 10.0 0.00 1.25 0.43 80 1009.8
20260506130825 45 333 2.0 6.0 0.00 1.25 0.43 81 1009.4
20260506125826 45 328 2.0 5.0 0.00 1.25 0.43 81 1009.3
20260506124828 45 338 3.0 8.0 0.00 1.25 0.43 81 1009.2
20260506123845 45 330 4.0 10.0 0.00 1.25 0.43 82 1009.3
20260506122842 44 325 4.0 10.0 0.00 1.25 0.43 82 1009.4
20260506121833 44 333 3.0 6.0 0.00 1.25 0.43 83 1009.2
20260506120824 44 326 2.0 8.0 0.00 1.25 0.43 83 1008.8
20260506115828 44 326 2.0 6.0 0.00 1.25 0.43 83 1008.7
20260506114831 43 325 2.0 4.0 0.00 1.25 0.43 84 1008.7
20260506113824 43 325 1.0 4.0 0.00 1.25 0.43 83 1008.5
20260506112816 43 325 2.0 8.0 0.00 1.25 0.43 84 1008.3
20260506111835 43 324 3.0 6.0 0.00 1.25 0.43 84 1008.0
20260506110830 43 318 1.0 5.0 0.00 1.25 0.43 84 1007.7
20260506105832 43 315 2.0 6.0 0.00 1.28 0.43 84 1007.5
20260506104835 43 317 3.0 8.0 0.00 1.28 0.43 83 1007.5
20260506103826 43 328 2.0 8.0 0.00 1.28 0.43 84 1007.2
20260506102847 43 327 4.0 8.0 0.01 1.28 0.43 84 1007.1
20260506101847 43 319 2.0 9.0 0.01 1.28 0.43 84 1007.0
20260506100817 43 346 3.0 9.0 0.01 1.28 0.43 84 1006.7
20260506095842 43 336 1.0 3.0 0.01 1.29 0.43 85 1006.6
20260506094845 43 336 1.0 4.0 0.01 1.29 0.43 85 1006.4
20260506093902 43 342 2.0 6.0 0.01 1.29 0.43 85 1006.7
20260506092831 43 342 2.0 8.0 0.01 1.28 0.42 85 1006.6
20260506091824 43 346 2.0 8.0 0.02 1.28 0.42 85 1006.4
20260506090841 44 355 4.0 9.0 0.03 1.28 0.42 85 1006.5
20260506085843 44 333 3.0 8.0 0.05 1.28 0.42 85 1006.2
20260506084847 44 311 5.0 10.0 0.06 1.28 0.42 85 1006.0
20260506083839 44 311 6.0 15.0 0.08 1.28 0.42 85 1006.2
20260506082830 44 328 6.0 12.0 0.08 1.27 0.41 85 1005.9
20260506081909 45 306 5.0 13.0 0.09 1.26 0.40 85 1005.7
20260506080839 45 332 6.0 13.0 0.10 1.25 0.39 85 1005.3
20260506072833 46 5 4.0 10.0 0.12 1.19 0.33 85 1005.4
20260506071824 47 293 4.0 13.0 0.12 1.17 0.31 85 1004.9
20260506070814 47 16 4.0 13.0 0.11 1.15 0.29 85 1005.3
20260506061833 49 336 4.0 9.0 0.09 1.05 0.19 85 1004.4
20260506060823 49 25 4.0 10.0 0.10 1.04 0.18 85 1004.6
20260506050828 57 173 1.0 6.0 0.07 0.94 0.08 85 1004.3
20260506044829 57 161 4.0 14.0 0.07 0.92 0.06 85 1004.1
20260506043826 57 190 4.0 13.0 0.07 0.91 0.05 85 1004.1
20260506042845 57 178 6.0 12.0 0.06 0.89 0.03 85 1004.1
20260506041839 57 193 3.0 11.0 0.06 0.88 0.02 85 1004.1
20260506040833 57 185 3.0 14.0 0.07 0.87 0.01 85 1003.8
20260506035817 58 175 3.0 6.0 0.07 0.86 0.86 85 1004.2
20260506034841 58 184 2.0 4.0 0.08 0.85 0.85 85 1004.2
20260506033833 58 194 0.0 2.0 0.08 0.84 0.84 85 1004.3
20260506032825 58 194 0.0 1.0 0.09 0.83 0.83 85 1004.4
20260506031845 58 194 0.0 0.0 0.10 0.82 0.82 85 1004.5
20260506030837 58 194 0.0 0.0 0.10 0.80 0.80 85 1004.8
20260506025840 58 194 0.0 1.0 0.11 0.79 0.79 85 1004.9
20260506024823 58 194 0.0 2.0 0.10 0.77 0.77 85 1005.0
20260506023840 58 194 0.0 3.0 0.10 0.76 0.76 85 1004.4
20260506022833 58 194 0.0 3.0 0.08 0.74 0.74 85 1005.1
20260506021852 58 194 0.0 1.0 0.08 0.72 0.72 85 1005.5
20260506020851 58 194 1.0 2.0 0.07 0.70 0.70 85 1005.4
20260506015833 58 194 0.0 2.0 0.05 0.68 0.68 84 1005.1
20260506014857 58 194 1.0 2.0 0.03 0.66 0.66 84 1005.0
20260506013827 58 194 0.0 0.0 0.03 0.66 0.66 84 1005.3
20260506012845 58 194 0.0 3.0 0.03 0.66 0.66 85 1005.1
20260506011843 59 248 0.0 0.0 0.01 0.64 0.64 85 1005.0
20260506010902 59 248 0.0 3.0 0.00 0.63 0.63 84 1005.3
20260506005827 59 187 1.0 2.0 0.00 0.63 0.63 84 1005.0
20260506004830 59 186 0.0 3.0 0.01 0.63 0.63 84 1004.6
20260506003909 59 186 0.0 5.0 0.01 0.63 0.63 84 1004.4
20260506002840 59 177 2.0 5.0 0.01 0.63 0.63 84 1004.5
20260506001831 59 184 2.0 6.0 0.01 0.63 0.63 85 1004.5
20260506000825 59 180 4.0 5.0 0.01 0.63 0.63 85 1004.6
20260505235828 59 188 1.0 4.0 0.02 0.63 0.63 85 1004.6
20260505234830 59 188 1.0 4.0 0.02 0.62 0.62 84 1004.4
20260505233851 59 188 1.0 5.0 0.02 0.62 0.62 84 1004.7
20260505232823 59 188 0.0 2.0 0.03 0.62 0.62 84 1004.7
20260505231816 59 188 0.0 3.0 0.04 0.62 0.62 84 1004.8
20260505230831 59 188 0.0 3.0 0.06 0.62 0.62 84 1004.9
20260505225902 59 188 2.0 5.0 0.06 0.61 0.61 84 1005.2
20260505224824 59 201 1.0 4.0 0.07 0.60 0.60 84 1005.2
20260505223845 59 192 2.0 7.0 0.09 0.60 0.60 84 1005.3
20260505222835 60 188 2.0 6.0 0.10 0.59 0.59 84 1005.4
20260505221831 60 180 2.0 6.0 0.11 0.58 0.58 84 1005.6
20260505220822 60 173 1.0 5.0 0.12 0.56 0.56 84 1005.5
20260505215826 59 163 4.0 8.0 0.13 0.55 0.55 84 1005.8
20260505214847 60 163 4.0 6.0 0.14 0.53 0.53 84 1005.9
20260505213839 59 186 2.0 7.0 0.15 0.51 0.51 84 1006.0
20260505212829 59 186 4.0 8.0 0.16 0.49 0.49 84 1006.1
20260505211847 59 181 4.0 9.0 0.17 0.47 0.47 84 1006.2
20260505210839 59 159 4.0 6.0 0.18 0.44 0.44 84 1006.2
20260505205823 59 173 2.0 7.0 0.19 0.42 0.42 84 1006.4